This is the latest recevied weather packets stored in our database for station/object K9COE-11. If no packets are shown the sender has not sent any weather packets the latest 1 day(s).
| Time | Temp. | Humidity | Pressure | Rain* | Wind** | Luminosity | Snow |
|---|---|---|---|---|---|---|---|
| 1778094110 | 21.67° C | 45% | - | 0 mm | - | - | - |
| 1778093473 | 21.67° C | 43% | - | 0 mm | - | - | - |
| 1778091436 | 20.56° C | 47% | - | 0 mm | - | - | - |
| 1778091310 | 20.56° C | 47% | - | 0 mm | - | - | - |
| 1778090418 | 20.56° C | 49% | - | 0 mm | - | - | - |
| 1778089784 | 20.56° C | 50% | - | 0 mm | - | - | - |
| 1778089405 | 20° C | 50% | - | 0 mm | - | - | - |
| 1778088760 | 20° C | 51% | - | 0 mm | - | - | - |
| 1778087724 | 19.44° C | 52% | - | 0 mm | - | - | - |
| 1778087077 | 19.44° C | 54% | - | 0 mm | - | - | - |
| 1778086566 | 18.89° C | 53% | - | 0 mm | - | - | - |
| 1778086437 | 18.89° C | 53% | - | 0 mm | - | - | - |
| 1778085425 | 18.33° C | 55% | - | 0 mm | - | - | - |
| 1778084644 | 17.78° C | 55% | - | 0 mm | - | - | - |
| 1778083253 | 17.22° C | 60% | - | 0 mm | - | - | - |
| 1778082613 | 17.22° C | 63% | - | 0 mm | - | - | - |
| 1778082105 | 16.67° C | 62% | - | 0 mm | - | - | - |
| 1778082020 | 16.67° C | 64% | - | 0 mm | - | - | - |
| 1778081853 | 15.56° C | 65% | - | 0 mm | - | - | - |
| 1778081726 | 15.56° C | 66% | - | 0 mm | - | - | - |
| 1778080584 | 15° C | 70% | - | 0 mm | - | - | - |
| 1778080074 | 14.44° C | 74% | - | 0 mm | - | - | - |
| 1778079431 | 13.89° C | 77% | - | 0 mm | - | - | - |
| 1778079173 | 13.33° C | 77% | - | 0 mm | - | - | - |
| 1778078530 | 12.22° C | 85% | - | 0 mm | - | - | - |
* Rain latest 24 hours (hover to see other rain measurements)
** Current wind speed in m/s (hover to see current wind gust speed)